Location: Unspecified
(0.0000°N, 0.0000°E)
Time: 09:11:58
(UTC+00:00)

Vanguard 2 - Pass Details

Date: 22 December 2018
Orbit: 552 x 2939 km, 32.9° (Epoch: 17 January)

Event Time Altitude Azimuth Distance (km) Brightness Sun altitude
Rises 01:39:54 0° 303° (WNW) 4,436 - -56.0°
Reaches altitude 10° 01:42:23 10° 302° (WNW) 3,719 - -55.5°
Maximum altitude 01:52:47 83° 215° (SW) 2,184 - -53.7°
Exits shadow 01:56:46 57° 137° (SE) 2,693 10.1 -52.9°
Drops below altitude 10° 02:09:22 10° 128° (SE) 5,628 12.4 -50.5°
Sets 02:14:06 0° 127° (SE) 6,759 13.0 -49.6°
